This is the latest recevied weather packets stored in our database for station/object 5B4APJ-13. If no packets are shown the sender has not sent any weather packets the latest 10 day(s).
| Time | Temp. | Humidity | Pressure | Rain* | Wind** | Luminosity | Snow |
|---|---|---|---|---|---|---|---|
| 1777554426 | 25.56° C | 34% | 1013.8 hPa | 0 mm | 1.34 m/s, 258° | 489 W/m² | - |
| 1777554128 | 25° C | 33% | 1013.7 hPa | 0 mm | 1.79 m/s, 246° | 505 W/m² | - |
| 1777553828 | 25° C | 35% | 1014 hPa | 0 mm | 2.68 m/s, 197° | 514 W/m² | - |
| 1777553529 | 25° C | 35% | 1014 hPa | 0 mm | 2.24 m/s, 200° | 532 W/m² | - |
| 1777553228 | 25° C | 34% | 1013.9 hPa | 0 mm | 2.24 m/s, 151° | 546 W/m² | - |
| 1777552929 | 25.56° C | 33% | 1014.1 hPa | 0 mm | 3.13 m/s, 208° | 563 W/m² | - |
| 1777552629 | 25° C | 35% | 1014.2 hPa | 0 mm | 2.24 m/s, 155° | 577 W/m² | - |
| 1777552328 | 25.56° C | 35% | 1014.2 hPa | 0 mm | 1.34 m/s, 210° | 594 W/m² | - |
| 1777552029 | 25.56° C | 35% | 1014.3 hPa | 0 mm | 0.89 m/s, 155° | 611 W/m² | - |
| 1777551728 | 25° C | 36% | 1014.5 hPa | 0 mm | 1.34 m/s, 216° | 628 W/m² | - |
| 1777551428 | 25° C | 38% | 1014.3 hPa | 0 mm | 0.45 m/s, 218° | 644 W/m² | - |
| 1777551128 | 24.44° C | 38% | 1014.3 hPa | 0 mm | 1.79 m/s, 247° | 658 W/m² | - |
| 1777550828 | 24.44° C | 38% | 1014.5 hPa | 0 mm | 0.89 m/s, 183° | 674 W/m² | - |
| 1777550528 | 25° C | 39% | 1014.4 hPa | 0 mm | 0.45 m/s, 113° | 689 W/m² | - |
| 1777550228 | 25.56° C | 37% | 1014.6 hPa | 0 mm | 1.79 m/s, 238° | 705 W/m² | - |
| 1777549929 | 25.56° C | 39% | 1014.7 hPa | 0 mm | 2.24 m/s, 63° | 717 W/m² | - |
| 1777549628 | 25° C | 38% | 1014.8 hPa | 0 mm | 1.34 m/s, 93° | 726 W/m² | - |
| 1777549329 | 25° C | 38% | 1014.7 hPa | 0 mm | 1.34 m/s, 250° | 741 W/m² | - |
| 1777549029 | 25° C | 39% | 1014.7 hPa | 0 mm | 0.89 m/s, 124° | 755 W/m² | - |
| 1777548729 | 26.11° C | 37% | 1014.8 hPa | 0 mm | 2.68 m/s, 178° | 762 W/m² | - |
| 1777548429 | 26.11° C | 39% | 1014.7 hPa | 0 mm | 2.68 m/s, 150° | 776 W/m² | - |
| 1777548128 | 25° C | 39% | 1014.8 hPa | 0 mm | 3.13 m/s, 193° | 785 W/m² | - |
| 1777547829 | 25.56° C | 39% | 1015 hPa | 0 mm | 1.79 m/s, 200° | 790 W/m² | - |
| 1777547528 | 25.56° C | 39% | 1015.1 hPa | 0 mm | 0.89 m/s, 184° | 802 W/m² | - |
| 1777547229 | 25.56° C | 41% | 1015 hPa | 0 mm | 2.24 m/s, 145° | 808 W/m² | - |
* Rain latest hour (hover to see other rain measurements)
** Current wind speed in m/s (hover to see current wind gust speed)